#timestamp,LO_Frequency,Hit,StdDev 
1664870415.0,286047011.9,Y
1664870415.9,286046995.5,P
1664870435.7,286046995.4,N
1664870455.6,286046995.5,N
1664870475.4,286046998.0,N
1664870495.3,286046997.8,N
1664870515.1,286047000.4,N
1664870516.0,286047000.4,N
1664870535.8,286047000.0,N
1664870555.7,286047000.5,N
1664870575.5,286047002.2,N
1664870595.3,286047002.7,N
1664870615.2,286047002.1,N
1664870635.0,286047003.8,N
1664870635.9,286047003.8,N
1664870655.8,286047004.0,N
1664870675.6,286047001.2,N
1664870695.4,286046999.4,N
1664870715.3,286047002.0,N
1664870735.1,286046999.9,N
1664870755.8,286047002.8,N
1664870775.7,286046999.7,N
1664870795.5,286047000.6,N
1664870815.4,286046999.3,N
1664870835.2,286047000.0,N
1664870855.0,286046998.9,N
1664870855.9,286046998.9,N
1664870875.8,286046996.5,N
1664870895.6,286046999.5,N
1664870915.5,286046998.7,N
1664870935.3,286046997.3,N
1664870955.1,286046997.4,N
1664870975.9,286047000.7,N
1664870995.7,286047000.6,N
1664871015.5,286047003.0,N
1664871035.4,286047003.2,N
1664871055.2,286047003.9,N
1664871075.1,286046999.8,N
1664871076.0,286046999.8,N
1664871095.8,286047000.3,N
1664871115.6,286047000.2,N
1664871135.5,286047000.0,N
1664871155.3,286046998.8,N
1664871175.1,286046999.0,N
1664871195.9,286047000.9,N
1664871215.7,286046998.7,N
1664871235.6,286047002.4,N
1664871255.4,286047001.6,N
1664871275.2,286047001.8,N
1664871295.1,286047003.5,N
1664871296.0,286047003.5,N
1664871315.8,286047001.3,N
1664871335.6,286047003.1,N
1664871355.5,286047002.7,N
1664871375.3,286047000.0,N
1664871395.2,286046999.3,N
1664871415.9,286046998.8,N
1664871435.7,286047000.4,N
1664871455.6,286047001.2,N
1664871475.4,286047000.3,N
1664871495.3,286046998.8,N
1664871515.1,286047001.2,N
1664871516.0,286047001.2,N
1664871535.8,286046998.9,N
1664871555.7,286046997.8,N
1664871575.5,286046997.9,N
1664871595.3,286046997.6,N
1664871615.2,286046995.0,Y
1664871635.0,286046998.0,P
1664871635.9,286046998.0,N
1664871655.8,286046995.4,P
1664871675.6,286046995.5,N
1664871695.4,286046993.8,Y
1664871715.3,286046996.8,P
1664871735.1,286046999.0,P
1664871755.9,286046998.3,N
1664871775.7,286046996.8,Y
1664871795.5,286047000.4,P
1664871815.4,286047003.1,N
1664871835.2,286047003.7,N
1664871855.0,286047003.0,N
1664871855.9,286047003.0,N
1664871875.8,286047001.8,N
1664871895.6,286046999.9,N
1664871915.5,286047000.5,N
1664871935.3,286046999.9,N
1664871955.1,286047002.1,N
1664871975.9,286047003.4,N
1664871995.7,286047007.4,Y
1664872015.5,286047005.1,P
1664872035.4,286047003.8,N
1664872055.2,286047002.1,N
1664872075.1,286047001.0,N
1664872076.0,286047001.0,N
1664872095.8,286047004.3,N
1664872115.6,286047002.4,N
1664872135.5,286047004.0,N
1664872155.3,286047003.5,N
1664872175.1,286047004.1,N
1664872195.9,286047003.9,N
1664872215.7,286047004.3,Y
1664872235.6,286047011.9,P
1664872255.4,286047000.9,N
1664872275.2,286046998.1,N
1664872295.1,286047002.3,N
1664872296.0,286047002.3,N
1664872315.8,286046998.1,N
1664872335.7,286047000.4,N
1664872355.5,286046999.8,N
1664872375.3,286046999.0,N
1664872395.2,286046997.8,N
1664872415.9,286047000.3,N
1664872435.7,286047004.0,N
1664872455.6,286047004.2,N
1664872475.4,286047004.0,N
1664872495.3,286047004.0,N
1664872515.1,286047003.9,N
1664872516.0,286047003.9,N
1664872535.8,286047002.7,N
1664872555.7,286046999.0,N
1664872575.5,286046996.5,N
1664872595.3,286046997.5,N
1664872615.2,286046994.0,N
1664872635.0,286046993.7,N
1664872635.9,286046993.7,N
1664872655.8,286046997.9,N
1664872675.6,286046997.1,N
1664872695.4,286046995.3,N
1664872715.3,286046998.6,N
1664872735.1,286047001.1,N
1664872755.8,286046997.2,N
1664872775.7,286046996.1,N
1664872795.5,286046998.0,N
1664872815.4,286046997.0,N
1664872835.2,286046997.1,N
1664872855.0,286046999.4,N
1664872855.9,286046999.4,N
1664872905.8,286046996.1,E
1664872915.7,286046999.5,N
1664872935.6,286047002.1,P
1664872955.4,286047002.3,N
1664872975.2,286047002.5,N
1664872995.1,286047001.5,N
1664872996.0,286047001.5,N
1664873015.8,286047000.0,N
1664873035.7,286047000.4,N
1664873055.5,286046998.9,N
1664873075.3,286046998.6,N
1664873095.2,286046998.2,N
1664873115.0,286046999.5,N
1664873115.9,286046999.5,N
1664873135.7,286046995.4,Y
1664873155.6,286046995.6,P
1664873175.4,286046998.0,N
1664873195.3,286047000.4,N
1664873215.1,286047000.0,N
1664873216.0,286047000.0,N
1664873235.8,286047001.0,N
1664873255.7,286047000.0,N
1664873275.5,286047003.9,N
1664873295.4,286047005.4,N
1664873315.2,286047007.5,N
1664873335.0,286047006.8,N
1664873335.9,286047006.8,N
1664873355.8,286047006.6,N
1664873375.6,286047004.3,N
1664873395.4,286047003.9,N
1664873415.3,286047004.8,N
1664873435.1,286047003.3,N
1664873455.9,286047001.8,N
1664873475.7,286047001.3,N
1664873495.5,286047001.6,N
1664873515.4,286047003.7,N
1664873535.2,286047005.5,N
1664873555.0,286047001.8,N
1664873555.9,286047001.8,N
1664873575.8,286047001.7,N
1664873595.6,286047001.8,N
1664873615.5,286047003.7,N
1664873635.3,286047000.1,N
1664873655.1,286047000.7,N
1664873675.9,286047000.8,N
1664873695.7,286046998.3,N
1664873715.5,286047000.7,N
1664873735.4,286047000.4,N
1664873755.2,286046998.1,N
1664873775.1,286047000.8,N
1664873776.0,286047000.8,N
1664873795.8,286047000.6,N
1664873815.6,286047004.0,N
1664873835.5,286047003.6,N
1664873855.3,286047004.3,N
1664873875.1,286046999.8,N
1664873895.9,286046998.1,N
1664873915.7,286046996.9,N
1664873935.6,286046996.6,N
1664873955.4,286046999.2,N
1664873975.2,286046996.6,N
1664873995.1,286047000.1,N
1664873996.0,286047000.1,N
